Location: Eckley Miners' Village
(40.9930°N, 75.8630°W)
Time: 10:51:18
(UTC-04:00)

Vanguard 1 Rocket - Pass Details

Date: 12 March 2026
Orbit: 654 x 4213 km, 34.3° (Epoch: 11 April)

Event Time Altitude Azimuth Distance (km) Brightness Sun altitude
Rises 12:31:48 0° 265° (W) 3,053 10.0 44.9°
Reaches altitude 10° 12:34:00 10° 255° (WSW) 2,262 9.6 45.0°
Maximum altitude 12:38:34 34° 190° (S) 1,521 10.2 45.2°
Drops below altitude 10° 12:45:31 10° 129° (SE) 3,489 11.1 45.4°
Sets 12:49:49 0° 122° (ESE) 5,033 11.6 45.6°
